Location: Izdebno
(52.6670°N, 16.2170°E)
Time: 02:52:40
(UTC+02:00)

Transit 2A - Pass Details

Date: 02 March 2024
Orbit: 596 x 956 km, 66.7° (Epoch: 21 April)

Event Time Altitude Azimuth Distance (km) Brightness Sun altitude
Rises 19:00:49 0° 226° (SW) 2,838 9.6 -13.5°
Reaches altitude 10° 19:03:03 10° 229° (SW) 1,933 8.7 -13.9°
Maximum altitude 19:07:20 68° 312° (NW) 652 5.8 -14.5°
Drops below altitude 10° 19:11:46 10° 37° (NE) 1,998 7.9 -15.2°
Enters shadow 19:12:51 - 38° (NE) 2,431 8.3 -15.3°
Sets 19:14:07 0° 40° (NE) 2,944 - -15.5°
